Time,TemperatureF,DewpointF,PressureIn,WindDirection,WindDirectionDegrees,WindSpeedMPH,WindSpeedGustMPH,Humidity,HourlyPrecipIn,Conditions,Clouds,dailyrainin,SoftwareType,DateUTC
2013-01-11 00:00:00,39.8,31.0,30.26,ESE,118,0.0,8.0,70,0.00,,OVC OVC///CB,0.00,WUHU216DAVISVP2,2013-01-11 05:00:00,
2013-01-11 00:03:00,39.8,31.0,30.26,ESE,119,3.0,8.0,70,0.00,,OVC OVC///CB,0.00,WUHU216DAVISVP2,2013-01-11 05:03:00,
2013-01-11 00:08:00,40.0,31.2,30.26,SSE,149,3.0,8.0,70,0.00,,OVC OVC///CB,0.00,WUHU216DAVISVP2,2013-01-11 05:08:00,
2013-01-11 00:13:00,40.0,30.9,30.26,SE,145,2.0,8.0,69,0.00,,OVC OVC///CB,0.00,WUHU216DAVISVP2,2013-01-11 05:13:00,
2013-01-11 00:18:00,40.1,31.0,30.26,SSE,162,1.0,10.0,69,0.00,,OVC OVC///CB,0.00,WUHU216DAVISVP2,2013-01-11 05:18:00,
2013-01-11 00:23:00,40.2,31.1,30.26,ESE,102,3.0,10.0,69,0.00,,OVC OVC///CB,0.00,WUHU216DAVISVP2,2013-01-11 05:23:00,
2013-01-11 00:28:00,40.3,31.2,30.26,SE,142,2.0,9.0,69,0.00,,OVC OVC///CB,0.00,WUHU216DAVISVP2,2013-01-11 05:28:00,
2013-01-11 00:33:00,40.2,31.1,30.25,ESE,120,2.0,9.0,69,0.00,,OVC OVC///CB,0.00,WUHU216DAVISVP2,2013-01-11 05:33:00,
2013-01-11 00:38:00,40.2,31.4,30.25,ESE,115,1.0,7.0,70,0.00,,OVC OVC///CB,0.00,WUHU216DAVISVP2,2013-01-11 05:38:00,
2013-01-11 00:43:00,40.2,31.1,30.24,SE,130,0.0,5.0,69,0.00,,OVC OVC///CB,0.00,WUHU216DAVISVP2,2013-01-11 05:43:00,
2013-01-11 00:48:00,40.2,31.1,30.24,SE,135,3.0,6.0,69,0.00,,OVC OVC///CB,0.00,WUHU216DAVISVP2,2013-01-11 05:48:00,
2013-01-11 00:53:00,40.1,31.3,30.24,SE,142,1.0,6.0,70,0.00,,OVC OVC///CB,0.00,WUHU216DAVISVP2,2013-01-11 05:53:00,
2013-01-11 00:58:00,40.2,31.1,30.24,East,95,2.0,7.0,69,0.00,,OVC OVC///CB,0.00,WUHU216DAVISVP2,2013-01-11 05:58:00,
2013-01-11 01:03:00,40.2,31.1,30.24,ESE,103,2.0,9.0,69,0.00,,OVC OVC///CB,0.00,WUHU216DAVISVP2,2013-01-11 06:03:00,
2013-01-11 01:08:00,40.2,31.4,30.24,SE,127,2.0,9.0,70,0.00,,OVC OVC///CB,0.00,WUHU216DAVISVP2,2013-01-11 06:08:00,
2013-01-11 01:13:00,40.2,31.1,30.24,SE,146,3.0,8.0,69,0.00,,OVC OVC///CB,0.00,WUHU216DAVISVP2,2013-01-11 06:13:00,
2013-01-11 01:18:00,40.4,31.3,30.23,SE,129,0.0,8.0,69,0.00,,OVC OVC///CB,0.00,WUHU216DAVISVP2,2013-01-11 06:18:00,
2013-01-11 01:23:00,40.3,31.2,30.23,ESE,110,1.0,7.0,69,0.00,,OVC OVC///CB,0.00,WUHU216DAVISVP2,2013-01-11 06:23:00,
2013-01-11 01:28:00,40.3,31.5,30.23,South,191,0.0,6.0,70,0.00,,OVC OVC///CB,0.00,WUHU216DAVISVP2,2013-01-11 06:28:00,
2013-01-11 01:33:00,40.2,31.1,30.23,SSE,153,0.0,4.0,69,0.00,,OVC OVC///CB,0.00,WUHU216DAVISVP2,2013-01-11 06:33:00,
2013-01-11 01:38:00,40.1,31.7,30.23,SE,146,1.0,4.0,71,0.00,,OVC OVC///CB,0.00,WUHU216DAVISVP2,2013-01-11 06:38:00,
2013-01-11 01:43:00,40.2,31.4,30.23,SSE,149,1.0,2.0,70,0.00,,OVC OVC///CB,0.00,WUHU216DAVISVP2,2013-01-11 06:43:00,
2013-01-11 01:48:00,40.3,31.5,30.23,ESE,118,1.0,3.0,70,0.00,,OVC OVC///CB,0.00,WUHU216DAVISVP2,2013-01-11 06:48:00,
2013-01-11 01:53:00,40.3,31.5,30.23,SE,136,2.0,3.0,70,0.00,,OVC OVC///CB,0.00,WUHU216DAVISVP2,2013-01-11 06:53:00,
2013-01-11 01:58:00,40.5,31.7,30.22,ESE,110,3.0,4.0,70,0.00,,OVC OVC///CB,0.00,WUHU216DAVISVP2,2013-01-11 06:58:00,
2013-01-11 02:03:00,40.6,31.8,30.22,SE,142,2.0,5.0,70,0.00,,OVC OVC///CB,0.00,WUHU216DAVISVP2,2013-01-11 07:03:00,
2013-01-11 02:08:00,40.7,31.9,30.22,ESE,115,1.0,5.0,70,0.00,,OVC OVC///CB,0.00,WUHU216DAVISVP2,2013-01-11 07:08:00,
2013-01-11 02:13:00,40.8,31.6,30.22,ESE,115,3.0,4.0,69,0.00,,OVC OVC///CB,0.00,WUHU216DAVISVP2,2013-01-11 07:13:00,
2013-01-11 02:18:00,40.9,32.1,30.22,SSE,161,0.0,4.0,70,0.00,,OVC OVC///CB,0.00,WUHU216DAVISVP2,2013-01-11 07:18:00,
2013-01-11 02:23:00,41.0,31.8,30.22,SSE,158,3.0,5.0,69,0.00,,OVC OVC///CB,0.00,WUHU216DAVISVP2,2013-01-11 07:23:00,
2013-01-11 02:28:00,41.2,32.0,30.22,SE,138,4.0,5.0,69,0.00,,OVC OVC///CB,0.00,WUHU216DAVISVP2,2013-01-11 07:28:00,
2013-01-11 02:33:00,41.3,31.8,30.21,ESE,115,1.0,7.0,68,0.00,,OVC OVC///CB,0.00,WUHU216DAVISVP2,2013-01-11 07:33:00,
2013-01-11 02:38:00,41.3,32.1,30.21,ESE,119,1.0,7.0,69,0.00,,OVC OVC///CB,0.00,WUHU216DAVISVP2,2013-01-11 07:38:00,
2013-01-11 02:43:00,41.3,32.1,30.21,SE,134,1.0,7.0,69,0.00,,OVC OVC///CB,0.00,WUHU216DAVISVP2,2013-01-11 07:43:00,
2013-01-11 02:48:00,41.3,32.1,30.21,SE,135,1.0,7.0,69,0.00,,OVC OVC///CB,0.00,WUHU216DAVISVP2,2013-01-11 07:48:00,
2013-01-11 02:53:00,41.4,32.2,30.20,ESE,110,2.0,6.0,69,0.00,,OVC OVC///CB,0.00,WUHU216DAVISVP2,2013-01-11 07:53:00,
2013-01-11 02:58:00,41.5,32.3,30.21,East,91,2.0,5.0,69,0.00,,OVC OVC///CB,0.00,WUHU216DAVISVP2,2013-01-11 07:58:00,
2013-01-11 03:03:00,41.6,32.1,30.20,SSE,166,1.0,5.0,68,0.00,,OVC OVC///CB,0.00,WUHU216DAVISVP2,2013-01-11 08:03:00,
2013-01-11 03:08:00,41.8,32.2,30.20,SSE,153,4.0,5.0,68,0.00,,OVC OVC///CB,0.00,WUHU216DAVISVP2,2013-01-11 08:08:00,
2013-01-11 03:13:00,41.9,32.3,30.20,SE,145,5.0,6.0,68,0.00,,OVC OVC///CB,0.00,WUHU216DAVISVP2,2013-01-11 08:13:00,
2013-01-11 03:18:00,42.0,32.1,30.19,SSE,165,2.0,6.0,67,0.00,,OVC OVC///CB,0.00,WUHU216DAVISVP2,2013-01-11 08:18:00,
2013-01-11 03:23:00,42.0,32.4,30.19,SE,132,1.0,6.0,68,0.00,,OVC OVC///CB,0.00,WUHU216DAVISVP2,2013-01-11 08:23:00,
2013-01-11 03:28:00,41.9,32.3,30.19,ESE,113,3.0,6.0,68,0.00,,OVC OVC///CB,0.00,WUHU216DAVISVP2,2013-01-11 08:28:00,
2013-01-11 03:33:00,42.0,32.4,30.18,SE,129,1.0,8.0,68,0.00,,OVC OVC///CB,0.00,WUHU216DAVISVP2,2013-01-11 08:33:00,
2013-01-11 03:38:00,42.1,32.9,30.18,SE,131,1.0,8.0,69,0.00,,OVC OVC///CB,0.00,WUHU216DAVISVP2,2013-01-11 08:38:00,
2013-01-11 03:43:00,42.3,32.7,30.17,SE,143,2.0,8.0,68,0.00,,OVC OVC///CB,0.00,WUHU216DAVISVP2,2013-01-11 08:43:00,
2013-01-11 03:48:00,42.5,32.9,30.17,SE,135,3.0,8.0,68,0.00,,OVC OVC///CB,0.00,WUHU216DAVISVP2,2013-01-11 08:48:00,
2013-01-11 03:53:00,42.8,33.2,30.16,ESE,122,1.0,5.0,68,0.00,,OVC OVC///CB,0.00,WUHU216DAVISVP2,2013-01-11 08:53:00,
2013-01-11 03:58:00,42.9,33.3,30.16,SSE,156,2.0,6.0,68,0.00,,OVC OVC///CB,0.00,WUHU216DAVISVP2,2013-01-11 08:58:00,
2013-01-11 04:03:00,43.2,33.6,30.16,SSE,159,2.0,7.0,68,0.00,,OVC OVC///CB,0.00,WUHU216DAVISVP2,2013-01-11 09:03:00,
2013-01-11 04:08:00,43.3,34.0,30.15,SE,139,5.0,7.0,69,0.00,,OVC OVC///CB,0.00,WUHU216DAVISVP2,2013-01-11 09:08:00,
2013-01-11 04:13:00,43.3,34.0,30.15,East,92,1.0,6.0,69,0.00,,OVC OVC///CB,0.00,WUHU216DAVISVP2,2013-01-11 09:13:00,
2013-01-11 04:18:00,43.3,34.0,30.15,SSE,150,2.0,6.0,69,0.00,,OVC OVC///CB,0.00,WUHU216DAVISVP2,2013-01-11 09:18:00,
2013-01-11 04:23:00,43.2,33.9,30.15,SE,135,0.0,5.0,69,0.00,,OVC OVC///CB,0.00,WUHU216DAVISVP2,2013-01-11 09:23:00,
2013-01-11 04:28:00,43.1,34.2,30.14,ESE,121,0.0,5.0,70,0.00,,OVC OVC///CB,0.00,WUHU216DAVISVP2,2013-01-11 09:28:00,
2013-01-11 04:33:00,43.1,34.2,30.14,SE,136,0.0,4.0,70,0.00,,OVC OVC///CB,0.00,WUHU216DAVISVP2,2013-01-11 09:33:00,
2013-01-11 04:38:00,43.1,34.6,30.14,SE,141,1.0,3.0,71,0.00,,OVC OVC///CB,0.00,WUHU216DAVISVP2,2013-01-11 09:38:00,
2013-01-11 04:43:00,43.3,34.7,30.13,SSE,155,1.0,4.0,71,0.00,,OVC OVC///CB,0.00,WUHU216DAVISVP2,2013-01-11 09:43:00,
2013-01-11 04:48:00,43.5,34.9,30.13,SSE,153,2.0,4.0,71,0.00,,OVC OVC///CB,0.00,WUHU216DAVISVP2,2013-01-11 09:48:00,
2013-01-11 04:53:00,43.7,35.1,30.14,SE,133,1.0,4.0,71,0.00,,OVC OVC///CB,0.00,WUHU216DAVISVP2,2013-01-11 09:53:00,
2013-01-11 04:58:00,43.9,35.3,30.14,SSE,155,4.0,5.0,71,0.00,,OVC OVC///CB,0.00,WUHU216DAVISVP2,2013-01-11 09:58:00,
2013-01-11 05:03:00,44.0,35.1,30.14,SSE,149,2.0,5.0,70,0.00,,OVC OVC///CB,0.00,WUHU216DAVISVP2,2013-01-11 10:03:00,
2013-01-11 05:09:00,44.0,35.4,30.13,South,177,3.0,5.0,71,0.00,,OVC OVC///CB,0.00,WUHU216DAVISVP2,2013-01-11 10:09:00,
2013-01-11 05:14:00,44.0,35.1,30.14,SE,130,0.0,5.0,70,0.00,,OVC OVC///CB,0.00,WUHU216DAVISVP2,2013-01-11 10:14:00,
2013-01-11 05:19:00,43.9,35.3,30.13,South,180,1.0,6.0,71,0.00,,OVC OVC///CB,0.00,WUHU216DAVISVP2,2013-01-11 10:19:00,
2013-01-11 05:24:00,43.9,35.3,30.13,SSE,149,2.0,6.0,71,0.00,,OVC OVC///CB,0.00,WUHU216DAVISVP2,2013-01-11 10:24:00,
2013-01-11 05:29:00,43.9,35.3,30.12,SSW,195,2.0,6.0,71,0.00,,OVC OVC///CB,0.00,WUHU216DAVISVP2,2013-01-11 10:29:00,
2013-01-11 05:34:00,43.9,35.3,30.12,SSE,155,1.0,6.0,71,0.00,,OVC OVC///CB,0.00,WUHU216DAVISVP2,2013-01-11 10:34:00,
2013-01-11 05:39:00,43.9,35.7,30.11,SE,137,1.0,6.0,72,0.00,,OVC OVC///CB,0.00,WUHU216DAVISVP2,2013-01-11 10:39:00,
2013-01-11 05:44:00,43.9,35.7,30.11,SE,142,1.0,6.0,72,0.00,,OVC OVC///CB,0.00,WUHU216DAVISVP2,2013-01-11 10:44:00,
2013-01-11 05:49:00,44.0,35.8,30.11,South,188,5.0,5.0,72,0.00,,OVC OVC///CB,0.00,WUHU216DAVISVP2,2013-01-11 10:49:00,
2013-01-11 05:54:00,44.1,35.9,30.11,SSE,159,2.0,5.0,72,0.00,,OVC OVC///CB,0.00,WUHU216DAVISVP2,2013-01-11 10:54:00,
2013-01-11 05:59:00,44.3,36.4,30.11,SSE,159,4.0,5.0,73,0.00,,OVC OVC///CB,0.00,WUHU216DAVISVP2,2013-01-11 10:59:00,
2013-01-11 06:04:00,44.5,36.6,30.11,SE,134,3.0,5.0,73,0.00,,OVC OVC///CB,0.00,WUHU216DAVISVP2,2013-01-11 11:04:00,
2013-01-11 06:09:00,44.6,36.7,30.11,SE,139,2.0,5.0,73,0.00,,OVC OVC///CB,0.00,WUHU216DAVISVP2,2013-01-11 11:09:00,
2013-01-11 06:14:00,44.6,37.4,30.12,South,184,3.0,6.0,75,0.00,,OVC OVC///CB,0.00,WUHU216DAVISVP2,2013-01-11 11:14:00,
2013-01-11 06:19:00,44.6,38.0,30.11,South,184,3.0,6.0,77,0.00,,OVC OVC///CB,0.00,WUHU216DAVISVP2,2013-01-11 11:19:00,
2013-01-11 06:24:00,44.3,38.4,30.11,SE,139,3.0,6.0,79,0.00,,OVC OVC///CB,0.00,WUHU216DAVISVP2,2013-01-11 11:24:00,
2013-01-11 06:29:00,43.9,38.3,30.10,SE,138,2.0,6.0,80,0.00,,OVC OVC///CB,0.00,WUHU216DAVISVP2,2013-01-11 11:29:00,
2013-01-11 06:34:00,43.7,38.7,30.10,SE,142,2.0,5.0,82,0.00,,OVC OVC///CB,0.00,WUHU216DAVISVP2,2013-01-11 11:34:00,
2013-01-11 06:39:00,43.4,39.0,30.09,SSE,149,2.0,6.0,84,0.01,,OVC OVC///CB,0.01,WUHU216DAVISVP2,2013-01-11 11:39:00,
2013-01-11 06:44:00,43.1,39.0,30.09,SE,142,2.0,6.0,85,0.01,,OVC OVC///CB,0.01,WUHU216DAVISVP2,2013-01-11 11:44:00,
2013-01-11 06:49:00,42.9,39.1,30.09,SSE,159,3.0,6.0,86,0.01,,OVC OVC///CB,0.01,WUHU216DAVISVP2,2013-01-11 11:49:00,
2013-01-11 06:54:00,42.9,39.4,30.09,SSE,148,3.0,5.0,87,0.01,,OVC OVC///CB,0.01,WUHU216DAVISVP2,2013-01-11 11:54:00,
2013-01-11 06:59:00,42.8,39.6,30.08,East,100,2.0,5.0,88,0.01,,OVC OVC///CB,0.01,WUHU216DAVISVP2,2013-01-11 11:59:00,
2013-01-11 07:04:00,42.9,39.7,30.08,SE,143,2.0,5.0,88,0.01,,OVC OVC///CB,0.01,WUHU216DAVISVP2,2013-01-11 12:04:00,
2013-01-11 07:09:00,42.8,39.6,30.08,SE,137,0.0,4.0,88,0.01,,OVC OVC///CB,0.01,WUHU216DAVISVP2,2013-01-11 12:09:00,
2013-01-11 07:14:00,42.7,39.8,30.08,ESE,113,0.0,4.0,89,0.01,,OVC OVC///CB,0.01,WUHU216DAVISVP2,2013-01-11 12:14:00,
2013-01-11 07:19:00,42.8,40.1,30.08,ESE,118,2.0,5.0,90,0.01,,OVC OVC///CB,0.01,WUHU216DAVISVP2,2013-01-11 12:19:00,
2013-01-11 07:24:00,42.8,40.1,30.07,ESE,114,2.0,5.0,90,0.01,,OVC OVC///CB,0.01,WUHU216DAVISVP2,2013-01-11 12:24:00,
2013-01-11 07:29:00,42.7,40.0,30.07,SE,130,1.0,5.0,90,0.01,,OVC OVC///CB,0.01,WUHU216DAVISVP2,2013-01-11 12:29:00,
2013-01-11 07:34:00,42.7,40.3,30.07,ESE,117,1.0,5.0,91,0.01,,OVC OVC///CB,0.01,WUHU216DAVISVP2,2013-01-11 12:34:00,
2013-01-11 07:39:00,42.9,40.2,30.06,SE,136,2.0,10.0,90,0.00,,OVC OVC///CB,0.01,WUHU216DAVISVP2,2013-01-11 12:39:00,
2013-01-11 07:44:00,43.0,40.3,30.06,SE,125,4.0,10.0,90,0.00,,OVC OVC///CB,0.01,WUHU216DAVISVP2,2013-01-11 12:44:00,
2013-01-11 07:49:00,43.2,40.5,30.05,SE,137,3.0,9.0,90,0.00,,OVC OVC///CB,0.01,WUHU216DAVISVP2,2013-01-11 12:49:00,
2013-01-11 07:54:00,43.4,40.7,30.04,SE,136,3.0,9.0,90,0.00,,OVC OVC///CB,0.01,WUHU216DAVISVP2,2013-01-11 12:54:00,
2013-01-11 07:58:00,43.6,40.6,30.04,SSE,162,2.0,8.0,89,0.00,,OVC OVC///CB,0.01,WUHU216DAVISVP2,2013-01-11 12:58:00,
2013-01-11 08:03:00,43.5,40.5,30.04,SE,131,1.0,8.0,89,0.00,,OVC OVC///CB,0.01,WUHU216DAVISVP2,2013-01-11 13:03:00,
2013-01-11 08:08:00,43.6,40.6,30.05,SE,141,1.0,5.0,89,0.00,,OVC OVC///CB,0.01,WUHU216DAVISVP2,2013-01-11 13:08:00,
2013-01-11 08:13:00,43.9,41.2,30.05,SSE,147,1.0,4.0,90,0.00,,OVC OVC///CB,0.01,WUHU216DAVISVP2,2013-01-11 13:13:00,
2013-01-11 08:18:00,44.3,41.3,30.05,SSE,152,2.0,5.0,89,0.00,,OVC OVC///CB,0.01,WUHU216DAVISVP2,2013-01-11 13:18:00,
2013-01-11 08:23:00,44.6,41.6,30.05,SE,142,3.0,5.0,89,0.00,,OVC OVC///CB,0.01,WUHU216DAVISVP2,2013-01-11 13:23:00,
2013-01-11 08:28:00,44.7,41.7,30.04,SSE,158,2.0,5.0,89,0.00,,OVC OVC///CB,0.01,WUHU216DAVISVP2,2013-01-11 13:28:00,
2013-01-11 08:33:00,44.7,42.0,30.04,SSE,158,1.0,5.0,90,0.01,,OVC OVC///CB,0.02,WUHU216DAVISVP2,2013-01-11 13:33:00,
2013-01-11 08:38:00,44.5,42.1,30.04,SSE,155,3.0,5.0,91,0.01,,OVC OVC///CB,0.02,WUHU216DAVISVP2,2013-01-11 13:38:00,
2013-01-11 08:43:00,44.4,42.3,30.03,SE,145,1.0,5.0,92,0.01,,OVC OVC///CB,0.02,WUHU216DAVISVP2,2013-01-11 13:43:00,
2013-01-11 08:48:00,44.4,42.6,30.02,East,89,6.0,8.0,93,0.02,,OVC OVC///CB,0.03,WUHU216DAVISVP2,2013-01-11 13:48:00,
2013-01-11 08:53:00,44.4,42.8,30.02,SE,146,1.0,10.0,94,0.03,,OVC OVC///CB,0.04,WUHU216DAVISVP2,2013-01-11 13:53:00,
2013-01-11 08:58:00,44.4,43.1,30.02,SSE,148,2.0,10.0,95,0.03,,OVC OVC///CB,0.04,WUHU216DAVISVP2,2013-01-11 13:58:00,
2013-01-11 09:03:00,44.5,43.2,30.02,SSE,167,3.0,9.0,95,0.04,,OVC OVC///CB,0.05,WUHU216DAVISVP2,2013-01-11 14:03:00,
2013-01-11 09:08:00,44.5,43.2,30.01,SE,132,2.0,6.0,95,0.04,,OVC OVC///CB,0.05,WUHU216DAVISVP2,2013-01-11 14:08:00,
2013-01-11 09:13:00,44.7,43.7,30.01,SSE,148,1.0,4.0,96,0.04,,OVC OVC///CB,0.05,WUHU216DAVISVP2,2013-01-11 14:13:00,
2013-01-11 09:18:00,44.9,43.9,30.01,SE,127,3.0,4.0,96,0.04,,OVC OVC///CB,0.05,WUHU216DAVISVP2,2013-01-11 14:18:00,
2013-01-11 09:23:00,45.2,44.2,30.01,ESE,114,3.0,7.0,96,0.04,,OVC OVC///CB,0.05,WUHU216DAVISVP2,2013-01-11 14:23:00,
2013-01-11 09:28:00,45.3,44.0,30.00,SW,215,1.0,7.0,95,0.04,,OVC OVC///CB,0.05,WUHU216DAVISVP2,2013-01-11 14:28:00,
2013-01-11 09:33:00,45.4,44.4,30.01,SSE,167,3.0,7.0,96,0.03,,OVC OVC///CB,0.05,WUHU216DAVISVP2,2013-01-11 14:33:00,
2013-01-11 09:38:00,45.5,44.2,30.02,SSW,194,1.0,7.0,95,0.03,,OVC OVC///CB,0.05,WUHU216DAVISVP2,2013-01-11 14:38:00,
2013-01-11 09:43:00,45.6,44.6,30.02,SSE,150,1.0,6.0,96,0.04,,OVC OVC///CB,0.06,WUHU216DAVISVP2,2013-01-11 14:43:00,
2013-01-11 09:48:00,45.5,44.5,30.01,SSE,152,1.0,6.0,96,0.04,,OVC OVC///CB,0.07,WUHU216DAVISVP2,2013-01-11 14:48:00,
2013-01-11 09:53:00,45.4,44.4,30.01,SE,142,1.0,6.0,96,0.06,,OVC OVC///CB,0.10,WUHU216DAVISVP2,2013-01-11 14:53:00,
2013-01-11 09:58:00,45.4,44.7,30.01,SE,139,1.0,6.0,97,0.09,,OVC OVC///CB,0.13,WUHU216DAVISVP2,2013-01-11 14:58:00,
2013-01-11 10:03:00,45.3,44.6,30.00,SSE,155,2.0,3.0,97,0.10,,OVC OVC///CB,0.15,WUHU216DAVISVP2,2013-01-11 15:03:00,
2013-01-11 10:08:00,45.2,44.5,30.01,SE,146,2.0,3.0,97,0.10,,OVC OVC///CB,0.15,WUHU216DAVISVP2,2013-01-11 15:08:00,
2013-01-11 10:13:00,45.3,44.9,30.00,SSE,149,3.0,4.0,98,0.12,,OVC OVC///CB,0.17,WUHU216DAVISVP2,2013-01-11 15:13:00,
2013-01-11 10:18:00,45.4,45.0,29.99,SE,132,2.0,5.0,98,0.14,,OVC OVC///CB,0.19,WUHU216DAVISVP2,2013-01-11 15:18:00,
2013-01-11 10:23:00,45.4,45.0,29.99,SE,145,2.0,5.0,98,0.15,,OVC OVC///CB,0.20,WUHU216DAVISVP2,2013-01-11 15:23:00,
2013-01-11 10:28:00,45.4,45.0,29.98,SE,139,2.0,5.0,98,0.18,,OVC OVC///CB,0.23,WUHU216DAVISVP2,2013-01-11 15:28:00,
2013-01-11 10:33:00,45.5,45.1,29.98,SSE,150,3.0,5.0,98,0.19,,OVC OVC///CB,0.25,WUHU216DAVISVP2,2013-01-11 15:33:00,
2013-01-11 10:38:00,45.6,45.2,29.98,SSE,159,1.0,5.0,98,0.21,,OVC OVC///CB,0.26,WUHU216DAVISVP2,2013-01-11 15:38:00,
2013-01-11 10:43:00,45.7,45.3,29.99,SSE,159,2.0,5.0,98,0.22,,OVC OVC///CB,0.28,WUHU216DAVISVP2,2013-01-11 15:43:00,
2013-01-11 10:48:00,45.8,45.6,29.99,SW,228,3.0,5.0,99,0.23,,OVC OVC///CB,0.30,WUHU216DAVISVP2,2013-01-11 15:48:00,
2013-01-11 10:53:00,46.0,45.8,29.99,SSW,193,2.0,7.0,99,0.21,,OVC OVC///CB,0.31,WUHU216DAVISVP2,2013-01-11 15:53:00,
2013-01-11 10:58:00,46.1,45.9,30.00,SSW,205,4.0,7.0,99,0.19,,OVC OVC///CB,0.32,WUHU216DAVISVP2,2013-01-11 15:58:00,
2013-01-11 11:03:00,46.3,46.1,30.00,SW,221,3.0,6.0,99,0.18,,OVC OVC///CB,0.33,WUHU216DAVISVP2,2013-01-11 16:03:00,
2013-01-11 11:08:00,46.3,46.1,30.00,WNW,288,2.0,8.0,99,0.18,,OVC OVC///CB,0.33,WUHU216DAVISVP2,2013-01-11 16:08:00,
2013-01-11 11:13:00,46.2,46.0,30.00,SW,234,1.0,8.0,99,0.17,,OVC OVC///CB,0.34,WUHU216DAVISVP2,2013-01-11 16:13:00,
2013-01-11 11:18:00,46.1,45.9,30.00,SSW,210,2.0,8.0,99,0.15,,OVC OVC///CB,0.34,WUHU216DAVISVP2,2013-01-11 16:18:00,
2013-01-11 11:23:00,46.1,45.9,29.99,SW,232,1.0,6.0,99,0.14,,OVC OVC///CB,0.34,WUHU216DAVISVP2,2013-01-11 16:23:00,
2013-01-11 11:28:00,46.2,46.0,29.99,SSE,167,4.0,5.0,99,0.12,,OVC OVC///CB,0.35,WUHU216DAVISVP2,2013-01-11 16:28:00,
2013-01-11 11:33:00,46.2,46.0,29.98,SSW,198,2.0,5.0,99,0.10,,OVC OVC///CB,0.35,WUHU216DAVISVP2,2013-01-11 16:33:00,
2013-01-11 11:38:00,46.3,46.1,29.98,SSE,165,2.0,5.0,99,0.09,,OVC OVC///CB,0.35,WUHU216DAVISVP2,2013-01-11 16:38:00,
2013-01-11 11:43:00,46.4,46.2,29.97,SE,142,0.0,5.0,99,0.07,,OVC OVC///CB,0.35,WUHU216DAVISVP2,2013-01-11 16:43:00,
2013-01-11 11:48:00,46.6,46.6,29.97,South,183,2.0,5.0,100,0.06,,OVC OVC///CB,0.36,WUHU216DAVISVP2,2013-01-11 16:48:00,
2013-01-11 11:53:00,47.0,47.0,29.96,SSE,155,1.0,4.0,100,0.05,,OVC OVC///CB,0.36,WUHU216DAVISVP2,2013-01-11 16:53:00,
2013-01-11 11:58:00,47.2,47.2,29.95,SSE,156,1.0,5.0,100,0.05,,OVC OVC///CB,0.37,WUHU216DAVISVP2,2013-01-11 16:58:00,
2013-01-11 12:03:00,47.6,47.6,29.96,SSE,153,4.0,6.0,100,0.04,,OVC OVC///CB,0.37,WUHU216DAVISVP2,2013-01-11 17:03:00,
2013-01-11 12:08:00,48.0,48.0,29.95,SSW,203,4.0,7.0,100,0.04,,OVC OVC///CB,0.37,WUHU216DAVISVP2,2013-01-11 17:08:00,
2013-01-11 12:13:00,48.4,48.4,29.94,South,186,4.0,7.0,100,0.04,,OVC OVC///CB,0.38,WUHU216DAVISVP2,2013-01-11 17:13:00,
2013-01-11 12:18:00,48.8,48.8,29.93,SSE,162,3.0,8.0,100,0.05,,OVC OVC///CB,0.39,WUHU216DAVISVP2,2013-01-11 17:18:00,
2013-01-11 12:23:00,49.1,49.1,29.92,SSE,160,4.0,8.0,100,0.06,,OVC OVC///CB,0.40,WUHU216DAVISVP2,2013-01-11 17:23:00,
2013-01-11 12:28:00,49.7,49.7,29.91,SE,132,3.0,8.0,100,0.05,,OVC OVC///CB,0.40,WUHU216DAVISVP2,2013-01-11 17:28:00,
2013-01-11 12:33:00,50.5,50.5,29.91,South,190,3.0,13.0,100,0.05,,OVC OVC///CB,0.40,WUHU216DAVISVP2,2013-01-11 17:33:00,
2013-01-11 12:38:00,51.2,51.2,29.90,SSE,160,2.0,13.0,100,0.05,,OVC OVC///CB,0.40,WUHU216DAVISVP2,2013-01-11 17:38:00,
2013-01-11 12:43:00,51.7,51.7,29.91,South,170,8.0,13.0,100,0.05,,OVC OVC///CB,0.40,WUHU216DAVISVP2,2013-01-11 17:43:00,
2013-01-11 12:48:00,51.9,51.7,29.91,SSW,203,9.0,17.0,99,0.04,,OVC OVC///CB,0.40,WUHU216DAVISVP2,2013-01-11 17:48:00,
2013-01-11 12:53:00,52.1,51.6,29.90,SSW,197,5.0,17.0,98,0.04,,OVC OVC///CB,0.40,WUHU216DAVISVP2,2013-01-11 17:53:00,
2013-01-11 12:58:00,52.2,51.7,29.90,South,190,4.0,17.0,98,0.03,,OVC OVC///CB,0.40,WUHU216DAVISVP2,2013-01-11 17:58:00,
2013-01-11 13:03:00,52.5,52.0,29.90,SSW,201,11.0,17.0,98,0.03,,OVC OVC///CB,0.40,WUHU216DAVISVP2,2013-01-11 18:03:00,
2013-01-11 13:08:00,52.7,52.0,29.90,SSE,156,4.0,17.0,97,0.03,,OVC OVC///CB,0.40,WUHU216DAVISVP2,2013-01-11 18:08:00,
2013-01-11 13:13:00,53.0,52.3,29.90,SSW,195,5.0,17.0,97,0.02,,OVC OVC///CB,0.40,WUHU216DAVISVP2,2013-01-11 18:13:00,
2013-01-11 13:18:00,53.4,52.7,29.90,SW,235,9.0,17.0,97,0.01,,OVC OVC///CB,0.40,WUHU216DAVISVP2,2013-01-11 18:18:00,
2013-01-11 13:23:00,53.8,53.1,29.90,SSW,195,6.0,16.0,97,0.00,,OVC OVC///CB,0.40,WUHU216DAVISVP2,2013-01-11 18:23:00,
2013-01-11 13:28:00,54.3,53.3,29.90,South,187,6.0,14.0,96,0.00,,OVC OVC///CB,0.40,WUHU216DAVISVP2,2013-01-11 18:28:00,
2013-01-11 13:33:00,54.7,53.4,29.91,SSW,207,4.0,15.0,95,0.00,,OVC OVC///CB,0.40,WUHU216DAVISVP2,2013-01-11 18:33:00,
2013-01-11 13:38:00,54.8,53.5,29.91,SW,229,2.0,15.0,95,0.00,,OVC OVC///CB,0.40,WUHU216DAVISVP2,2013-01-11 18:38:00,
2013-01-11 13:43:00,54.8,53.2,29.92,SW,221,10.0,14.0,94,0.00,,OVC OVC///CB,0.40,WUHU216DAVISVP2,2013-01-11 18:43:00,
2013-01-11 13:48:00,54.7,53.1,29.92,SW,225,4.0,14.0,94,0.00,,OVC OVC///CB,0.40,WUHU216DAVISVP2,2013-01-11 18:48:00,
2013-01-11 13:53:00,54.7,53.1,29.92,WSW,239,6.0,13.0,94,0.00,,OVC OVC///CB,0.40,WUHU216DAVISVP2,2013-01-11 18:53:00,
2013-01-11 13:58:00,54.7,53.1,29.92,WSW,243,4.0,13.0,94,0.00,,OVC OVC///CB,0.40,WUHU216DAVISVP2,2013-01-11 18:58:00,
2013-01-11 14:03:00,54.7,53.1,29.92,West,281,8.0,15.0,94,0.00,,OVC OVC///CB,0.40,WUHU216DAVISVP2,2013-01-11 19:03:00,
2013-01-11 14:08:00,54.8,53.2,29.92,SSE,165,5.0,15.0,94,0.00,,OVC OVC///CB,0.40,WUHU216DAVISVP2,2013-01-11 19:08:00,
2013-01-11 14:13:00,54.9,53.3,29.92,WSW,239,0.0,14.0,94,0.00,,OVC OVC///CB,0.40,WUHU216DAVISVP2,2013-01-11 19:13:00,
2013-01-11 14:18:00,54.9,53.3,29.92,SW,222,10.0,13.0,94,0.00,,OVC OVC///CB,0.40,WUHU216DAVISVP2,2013-01-11 19:18:00,
2013-01-11 14:23:00,54.9,53.0,29.92,SW,226,5.0,13.0,93,0.00,,OVC OVC///CB,0.40,WUHU216DAVISVP2,2013-01-11 19:23:00,
2013-01-11 14:28:00,54.9,53.0,29.92,WSW,252,5.0,13.0,93,0.00,,OVC OVC///CB,0.40,WUHU216DAVISVP2,2013-01-11 19:28:00,
2013-01-11 14:33:00,55.2,53.3,29.92,SW,232,13.0,18.0,93,0.00,,OVC OVC///CB,0.40,WUHU216DAVISVP2,2013-01-11 19:33:00,
2013-01-11 14:38:00,55.2,53.3,29.92,SW,224,11.0,18.0,93,0.00,,OVC OVC///CB,0.40,WUHU216DAVISVP2,2013-01-11 19:38:00,
2013-01-11 14:43:00,55.4,53.5,29.92,SW,214,10.0,17.0,93,0.00,,OVC OVC///CB,0.40,WUHU216DAVISVP2,2013-01-11 19:43:00,
2013-01-11 14:48:00,55.9,53.7,29.92,WSW,241,4.0,17.0,92,0.00,,OVC OVC///CB,0.40,WUHU216DAVISVP2,2013-01-11 19:48:00,
2013-01-11 14:53:00,56.2,53.7,29.93,South,187,11.0,17.0,91,0.00,,OVC OVC///CB,0.40,WUHU216DAVISVP2,2013-01-11 19:53:00,
2013-01-11 14:58:00,56.2,53.7,29.93,SW,224,5.0,17.0,91,0.00,,OVC OVC///CB,0.40,WUHU216DAVISVP2,2013-01-11 19:58:00,
2013-01-11 15:03:00,56.5,54.0,29.92,WSW,239,3.0,16.0,91,0.00,,OVC OVC///CB,0.40,WUHU216DAVISVP2,2013-01-11 20:03:00,
2013-01-11 15:08:00,57.0,54.2,29.92,SW,218,8.0,16.0,90,0.00,,OVC OVC///CB,0.40,WUHU216DAVISVP2,2013-01-11 20:08:00,
2013-01-11 15:13:00,57.3,54.2,29.92,WSW,241,11.0,14.0,89,0.00,,OVC OVC///CB,0.40,WUHU216DAVISVP2,2013-01-11 20:13:00,
2013-01-11 15:18:00,57.3,54.2,29.93,WSW,245,5.0,15.0,89,0.00,,OVC OVC///CB,0.40,WUHU216DAVISVP2,2013-01-11 20:18:00,
2013-01-11 15:23:00,57.4,54.0,29.93,WSW,240,6.0,15.0,88,0.00,,OVC OVC///CB,0.40,WUHU216DAVISVP2,2013-01-11 20:23:00,
2013-01-11 15:28:00,57.2,53.8,29.93,SW,227,7.0,14.0,88,0.00,,OVC OVC///CB,0.40,WUHU216DAVISVP2,2013-01-11 20:28:00,
2013-01-11 15:33:00,56.7,53.6,29.93,SW,221,4.0,14.0,89,0.00,,OVC OVC///CB,0.40,WUHU216DAVISVP2,2013-01-11 20:33:00,
2013-01-11 15:38:00,56.5,53.7,29.93,West,263,6.0,14.0,90,0.00,,OVC OVC///CB,0.40,WUHU216DAVISVP2,2013-01-11 20:38:00,
2013-01-11 15:43:00,56.3,53.5,29.93,West,259,5.0,14.0,90,0.00,,OVC OVC///CB,0.40,WUHU216DAVISVP2,2013-01-11 20:43:00,
2013-01-11 15:48:00,56.4,53.6,29.93,SW,225,10.0,14.0,90,0.00,,OVC OVC///CB,0.40,WUHU216DAVISVP2,2013-01-11 20:48:00,
2013-01-11 15:53:00,56.4,53.6,29.94,WSW,254,4.0,13.0,90,0.00,,OVC OVC///CB,0.40,WUHU216DAVISVP2,2013-01-11 20:53:00,
2013-01-11 15:58:00,56.3,53.5,29.94,SW,215,2.0,13.0,90,0.00,,OVC OVC///CB,0.40,WUHU216DAVISVP2,2013-01-11 20:58:00,
2013-01-11 16:03:00,56.1,53.3,29.94,SSE,153,1.0,9.0,90,0.00,,OVC OVC///CB,0.40,WUHU216DAVISVP2,2013-01-11 21:03:00,
2013-01-11 16:08:00,56.0,53.2,29.94,SW,218,4.0,8.0,90,0.00,,OVC OVC///CB,0.40,WUHU216DAVISVP2,2013-01-11 21:08:00,
2013-01-11 16:13:00,55.9,53.4,29.94,SW,217,1.0,7.0,91,0.00,,OVC OVC///CB,0.40,WUHU216DAVISVP2,2013-01-11 21:13:00,
2013-01-11 16:18:00,55.8,53.3,29.94,SW,224,3.0,8.0,91,0.00,,OVC OVC///CB,0.40,WUHU216DAVISVP2,2013-01-11 21:18:00,
2013-01-11 16:23:00,55.7,53.2,29.94,SSW,195,1.0,8.0,91,0.00,,OVC OVC///CB,0.40,WUHU216DAVISVP2,2013-01-11 21:23:00,
2013-01-11 16:28:00,55.7,53.2,29.94,SW,228,3.0,7.0,91,0.00,,OVC OVC///CB,0.40,WUHU216DAVISVP2,2013-01-11 21:28:00,
2013-01-11 16:33:00,55.5,53.0,29.94,SW,233,1.0,7.0,91,0.00,,OVC OVC///CB,0.40,WUHU216DAVISVP2,2013-01-11 21:33:00,
2013-01-11 16:38:00,55.5,53.0,29.94,SW,221,1.0,6.0,91,0.00,,OVC OVC///CB,0.40,WUHU216DAVISVP2,2013-01-11 21:38:00,
2013-01-11 16:43:00,55.3,53.1,29.94,SW,228,2.0,5.0,92,0.00,,OVC OVC///CB,0.40,WUHU216DAVISVP2,2013-01-11 21:43:00,
2013-01-11 16:48:00,55.2,53.0,29.94,South,177,1.0,5.0,92,0.00,,OVC OVC///CB,0.40,WUHU216DAVISVP2,2013-01-11 21:48:00,
2013-01-11 16:53:00,55.1,52.9,29.94,South,183,4.0,5.0,92,0.00,,OVC OVC///CB,0.40,WUHU216DAVISVP2,2013-01-11 21:53:00,
2013-01-11 16:58:00,54.9,52.7,29.94,SW,228,1.0,7.0,92,0.00,,OVC OVC///CB,0.40,WUHU216DAVISVP2,2013-01-11 21:58:00,
2013-01-11 17:03:00,54.7,52.8,29.94,South,180,1.0,7.0,93,0.00,,OVC OVC///CB,0.40,WUHU216DAVISVP2,2013-01-11 22:03:00,
2013-01-11 17:08:00,54.6,52.7,29.94,SSW,205,1.0,7.0,93,0.00,,OVC OVC///CB,0.40,WUHU216DAVISVP2,2013-01-11 22:08:00,
2013-01-11 17:13:00,54.5,52.6,29.94,South,186,2.0,7.0,93,0.00,,OVC OVC///CB,0.40,WUHU216DAVISVP2,2013-01-11 22:13:00,
2013-01-11 17:18:00,54.4,52.5,29.95,SSW,195,1.0,5.0,93,0.00,,OVC OVC///CB,0.40,WUHU216DAVISVP2,2013-01-11 22:18:00,
2013-01-11 17:23:00,54.3,52.4,29.95,SW,226,2.0,5.0,93,0.00,,OVC OVC///CB,0.40,WUHU216DAVISVP2,2013-01-11 22:23:00,
2013-01-11 17:28:00,54.3,52.4,29.95,SSW,197,2.0,5.0,93,0.00,,OVC OVC///CB,0.40,WUHU216DAVISVP2,2013-01-11 22:28:00,
2013-01-11 17:33:00,54.2,52.3,29.95,SW,218,1.0,4.0,93,0.00,,OVC OVC///CB,0.40,WUHU216DAVISVP2,2013-01-11 22:33:00,
2013-01-11 17:38:00,54.2,52.3,29.95,SW,224,2.0,4.0,93,0.00,,OVC OVC///CB,0.40,WUHU216DAVISVP2,2013-01-11 22:38:00,
2013-01-11 17:43:00,54.2,52.3,29.95,SSW,210,3.0,5.0,93,0.00,,OVC OVC///CB,0.40,WUHU216DAVISVP2,2013-01-11 22:43:00,
2013-01-11 17:48:00,54.2,52.3,29.95,SSW,208,1.0,5.0,93,0.00,,OVC OVC///CB,0.40,WUHU216DAVISVP2,2013-01-11 22:48:00,
2013-01-11 17:53:00,54.1,52.2,29.96,SW,233,2.0,5.0,93,0.00,,OVC OVC///CB,0.40,WUHU216DAVISVP2,2013-01-11 22:53:00,
2013-01-11 17:58:00,54.1,52.2,29.96,SSW,195,1.0,5.0,93,0.00,,OVC OVC///CB,0.40,WUHU216DAVISVP2,2013-01-11 22:58:00,
2013-01-11 18:03:00,54.2,52.3,29.96,SW,217,3.0,7.0,93,0.00,,OVC OVC///CB,0.40,WUHU216DAVISVP2,2013-01-11 23:03:00,
2013-01-11 18:08:00,54.2,52.0,29.97,SW,217,3.0,7.0,92,0.00,,OVC OVC///CB,0.40,WUHU216DAVISVP2,2013-01-11 23:08:00,
2013-01-11 18:13:00,54.1,51.9,29.96,SW,224,1.0,7.0,92,0.00,,OVC OVC///CB,0.40,WUHU216DAVISVP2,2013-01-11 23:13:00,
2013-01-11 18:18:00,54.1,51.9,29.96,SW,221,4.0,7.0,92,0.00,,OVC OVC///CB,0.40,WUHU216DAVISVP2,2013-01-11 23:18:00,
2013-01-11 18:23:00,54.1,51.9,29.97,South,187,1.0,6.0,92,0.00,,OVC OVC///CB,0.40,WUHU216DAVISVP2,2013-01-11 23:23:00,
2013-01-11 18:28:00,54.2,52.0,29.97,SSW,204,4.0,6.0,92,0.00,,OVC OVC///CB,0.40,WUHU216DAVISVP2,2013-01-11 23:28:00,
2013-01-11 18:33:00,54.1,51.9,29.97,SSW,194,3.0,6.0,92,0.00,,OVC OVC///CB,0.40,WUHU216DAVISVP2,2013-01-11 23:33:00,
2013-01-11 18:38:00,54.0,51.8,29.97,SSW,205,1.0,6.0,92,0.00,,OVC OVC///CB,0.40,WUHU216DAVISVP2,2013-01-11 23:38:00,
2013-01-11 18:43:00,53.9,51.4,29.98,SW,226,2.0,6.0,91,0.00,,OVC OVC///CB,0.40,WUHU216DAVISVP2,2013-01-11 23:43:00,
2013-01-11 18:48:00,53.9,51.4,29.97,SSW,195,3.0,6.0,91,0.00,,OVC OVC///CB,0.40,WUHU216DAVISVP2,2013-01-11 23:48:00,
2013-01-11 18:53:00,53.9,51.4,29.98,SW,221,1.0,6.0,91,0.00,,OVC OVC///CB,0.40,WUHU216DAVISVP2,2013-01-11 23:53:00,
2013-01-11 18:58:00,53.7,51.2,29.98,SW,215,1.0,6.0,91,0.00,,OVC OVC///CB,0.40,WUHU216DAVISVP2,2013-01-11 23:58:00,
2013-01-11 19:03:00,53.4,50.9,29.98,SW,225,2.0,6.0,91,0.00,,OVC OVC///CB,0.40,WUHU216DAVISVP2,2013-01-12 00:03:00,
2013-01-11 19:08:00,53.1,50.6,29.98,SSW,208,3.0,6.0,91,0.00,,OVC OVC///CB,0.40,WUHU216DAVISVP2,2013-01-12 00:08:00,
2013-01-11 19:13:00,52.9,50.7,29.98,SSW,212,1.0,5.0,92,0.00,,OVC OVC///CB,0.40,WUHU216DAVISVP2,2013-01-12 00:13:00,
2013-01-11 19:18:00,52.6,50.4,29.98,SSW,203,2.0,5.0,92,0.00,,OVC OVC///CB,0.40,WUHU216DAVISVP2,2013-01-12 00:18:00,
2013-01-11 19:23:00,52.3,50.4,29.98,SSW,212,0.0,5.0,93,0.00,,OVC OVC///CB,0.40,WUHU216DAVISVP2,2013-01-12 00:23:00,
2013-01-11 19:28:00,52.1,50.2,29.98,SW,226,4.0,4.0,93,0.00,,OVC OVC///CB,0.40,WUHU216DAVISVP2,2013-01-12 00:28:00,
2013-01-11 19:33:00,52.0,50.1,29.98,SW,226,1.0,4.0,93,0.00,,OVC OVC///CB,0.40,WUHU216DAVISVP2,2013-01-12 00:33:00,
2013-01-11 19:38:00,52.0,50.4,29.98,WSW,239,6.0,6.0,94,0.00,,OVC OVC///CB,0.40,WUHU216DAVISVP2,2013-01-12 00:38:00,
2013-01-11 19:43:00,51.9,50.0,29.98,SW,232,3.0,7.0,93,0.00,,OVC OVC///CB,0.40,WUHU216DAVISVP2,2013-01-12 00:43:00,
2013-01-11 19:48:00,51.8,50.2,29.98,SW,226,2.0,7.0,94,0.00,,OVC OVC///CB,0.40,WUHU216DAVISVP2,2013-01-12 00:48:00,
2013-01-11 19:53:00,51.7,50.1,29.98,SW,221,1.0,6.0,94,0.00,,OVC OVC///CB,0.40,WUHU216DAVISVP2,2013-01-12 00:53:00,
2013-01-11 19:58:00,51.5,49.9,29.98,SSW,211,0.0,6.0,94,0.00,,OVC OVC///CB,0.40,WUHU216DAVISVP2,2013-01-12 00:58:00,
2013-01-11 20:03:00,51.4,49.8,29.98,SW,225,0.0,5.0,94,0.00,,OVC OVC///CB,0.40,WUHU216DAVISVP2,2013-01-12 01:03:00,
2013-01-11 20:08:00,51.5,49.9,29.98,SSW,198,1.0,5.0,94,0.00,,OVC OVC///CB,0.40,WUHU216DAVISVP2,2013-01-12 01:08:00,
2013-01-11 20:13:00,51.4,49.8,29.99,SW,221,0.0,5.0,94,0.00,,OVC OVC///CB,0.40,WUHU216DAVISVP2,2013-01-12 01:13:00,
2013-01-11 20:18:00,51.3,49.7,29.98,SSW,198,0.0,5.0,94,0.00,,OVC OVC///CB,0.40,WUHU216DAVISVP2,2013-01-12 01:18:00,
2013-01-11 20:23:00,51.2,49.6,29.99,South,186,1.0,4.0,94,0.00,,OVC OVC///CB,0.40,WUHU216DAVISVP2,2013-01-12 01:23:00,
2013-01-11 20:28:00,51.0,49.4,29.99,SSW,195,0.0,4.0,94,0.00,,OVC OVC///CB,0.40,WUHU216DAVISVP2,2013-01-12 01:28:00,
2013-01-11 20:33:00,50.7,49.1,29.99,South,186,0.0,2.0,94,0.00,,OVC OVC///CB,0.40,WUHU216DAVISVP2,2013-01-12 01:33:00,
2013-01-11 20:38:00,50.5,49.2,29.99,South,186,0.0,2.0,95,0.00,,OVC OVC///CB,0.40,WUHU216DAVISVP2,2013-01-12 01:38:00,
2013-01-11 20:43:00,50.4,49.1,29.98,South,179,1.0,1.0,95,0.00,,OVC OVC///CB,0.40,WUHU216DAVISVP2,2013-01-12 01:43:00,
2013-01-11 20:48:00,50.3,49.0,29.98,SSE,155,0.0,1.0,95,0.00,,OVC OVC///CB,0.40,WUHU216DAVISVP2,2013-01-12 01:48:00,
2013-01-11 20:53:00,50.0,48.7,29.99,SSE,155,0.0,1.0,95,0.00,,OVC OVC///CB,0.40,WUHU216DAVISVP2,2013-01-12 01:53:00,
2013-01-11 20:58:00,49.7,48.7,29.98,SSE,155,0.0,1.0,96,0.00,,OVC OVC///CB,0.40,WUHU216DAVISVP2,2013-01-12 01:58:00,
2013-01-11 21:03:00,49.5,48.5,29.98,SSE,155,0.0,1.0,96,0.00,,OVC OVC///CB,0.40,WUHU216DAVISVP2,2013-01-12 02:03:00,
2013-01-11 21:08:00,49.0,48.0,29.99,SSE,155,0.0,0.0,96,0.00,,OVC OVC///CB,0.40,WUHU216DAVISVP2,2013-01-12 02:08:00,
2013-01-11 21:13:00,48.7,47.7,29.98,SSE,155,0.0,0.0,96,0.00,,OVC OVC///CB,0.40,WUHU216DAVISVP2,2013-01-12 02:13:00,
2013-01-11 21:18:00,48.7,48.0,29.99,SSE,155,0.0,0.0,97,0.00,,OVC OVC///CB,0.40,WUHU216DAVISVP2,2013-01-12 02:18:00,
2013-01-11 21:23:00,48.5,47.8,29.99,SSE,155,0.0,0.0,97,0.00,,OVC OVC///CB,0.40,WUHU216DAVISVP2,2013-01-12 02:23:00,
2013-01-11 21:29:00,48.6,48.2,29.98,SSE,155,0.0,0.0,98,0.00,,OVC OVC///CB,0.40,WUHU216DAVISVP2,2013-01-12 02:29:00,
2013-01-11 21:34:00,48.3,47.6,29.99,SSE,155,0.0,0.0,97,0.00,,OVC OVC///CB,0.40,WUHU216DAVISVP2,2013-01-12 02:34:00,
2013-01-11 21:39:00,48.0,47.3,29.99,SSE,155,0.0,0.0,97,0.00,,OVC OVC///CB,0.40,WUHU216DAVISVP2,2013-01-12 02:39:00,
2013-01-11 21:44:00,48.0,47.6,29.99,SSE,155,0.0,0.0,98,0.00,,OVC OVC///CB,0.40,WUHU216DAVISVP2,2013-01-12 02:44:00,
2013-01-11 21:49:00,48.0,47.6,29.99,SSE,155,0.0,0.0,98,0.00,,OVC OVC///CB,0.40,WUHU216DAVISVP2,2013-01-12 02:49:00,
2013-01-11 21:54:00,48.0,47.6,29.98,SSE,155,1.0,1.0,98,0.00,,OVC OVC///CB,0.40,WUHU216DAVISVP2,2013-01-12 02:54:00,
2013-01-11 21:59:00,48.0,47.6,29.99,SSE,158,1.0,1.0,98,0.00,,OVC OVC///CB,0.40,WUHU216DAVISVP2,2013-01-12 02:59:00,
2013-01-11 22:04:00,48.2,47.8,29.98,SSE,160,1.0,1.0,98,0.00,,OVC OVC///CB,0.40,WUHU216DAVISVP2,2013-01-12 03:04:00,
2013-01-11 22:09:00,48.4,48.2,29.99,South,172,0.0,2.0,99,0.00,,OVC OVC///CB,0.40,WUHU216DAVISVP2,2013-01-12 03:09:00,
2013-01-11 22:13:00,48.5,48.1,29.98,SE,136,0.0,2.0,98,0.00,,OVC OVC///CB,0.40,WUHU216DAVISVP2,2013-01-12 03:13:00,
2013-01-11 22:19:00,48.4,48.0,29.99,SSW,203,0.0,2.0,98,0.00,,OVC OVC///CB,0.40,WUHU216DAVISVP2,2013-01-12 03:19:00,
2013-01-11 22:24:00,48.5,48.1,29.99,SSW,198,1.0,2.0,98,0.00,,OVC OVC///CB,0.40,WUHU216DAVISVP2,2013-01-12 03:24:00,
2013-01-11 22:29:00,48.5,48.1,29.99,SSE,154,1.0,3.0,98,0.00,,OVC OVC///CB,0.40,WUHU216DAVISVP2,2013-01-12 03:29:00,
2013-01-11 22:34:00,48.5,48.1,29.98,SSE,155,0.0,3.0,98,0.00,,OVC OVC///CB,0.40,WUHU216DAVISVP2,2013-01-12 03:34:00,
2013-01-11 22:38:00,48.5,48.1,29.98,SSE,165,0.0,3.0,98,0.00,,OVC OVC///CB,0.40,WUHU216DAVISVP2,2013-01-12 03:38:00,
2013-01-11 22:44:00,48.6,48.2,29.98,SSW,203,1.0,3.0,98,0.00,,OVC OVC///CB,0.40,WUHU216DAVISVP2,2013-01-12 03:44:00,
2013-01-11 22:49:00,48.5,48.1,29.99,SSE,159,0.0,2.0,98,0.00,,OVC OVC///CB,0.40,WUHU216DAVISVP2,2013-01-12 03:49:00,
2013-01-11 22:54:00,48.4,48.0,29.98,SSE,159,1.0,2.0,98,0.00,,OVC OVC///CB,0.40,WUHU216DAVISVP2,2013-01-12 03:54:00,
2013-01-11 22:59:00,48.4,48.0,29.98,SSE,156,1.0,2.0,98,0.00,,OVC OVC///CB,0.40,WUHU216DAVISVP2,2013-01-12 03:59:00,
2013-01-11 23:03:00,48.4,48.0,29.98,SSW,203,2.0,3.0,98,0.00,,OVC OVC///CB,0.40,WUHU216DAVISVP2,2013-01-12 04:03:00,
2013-01-11 23:09:00,48.5,48.1,29.98,SSW,201,1.0,3.0,98,0.00,,OVC OVC///CB,0.40,WUHU216DAVISVP2,2013-01-12 04:09:00,
2013-01-11 23:14:00,48.6,48.2,29.98,SSE,162,1.0,3.0,98,0.00,,OVC OVC///CB,0.40,WUHU216DAVISVP2,2013-01-12 04:14:00,
2013-01-11 23:19:00,48.6,48.2,29.98,SSE,160,1.0,3.0,98,0.00,,OVC OVC///CB,0.40,WUHU216DAVISVP2,2013-01-12 04:19:00,
2013-01-11 23:24:00,48.6,48.2,29.98,South,184,2.0,4.0,98,0.00,,OVC OVC///CB,0.40,WUHU216DAVISVP2,2013-01-12 04:24:00,
2013-01-11 23:29:00,48.7,48.3,29.98,SSW,197,1.0,5.0,98,0.00,,OVC OVC///CB,0.40,WUHU216DAVISVP2,2013-01-12 04:29:00,
2013-01-11 23:34:00,48.7,48.3,29.98,SSE,159,2.0,5.0,98,0.00,,OVC OVC///CB,0.40,WUHU216DAVISVP2,2013-01-12 04:34:00,
2013-01-11 23:39:00,48.7,48.3,29.98,SSW,196,4.0,5.0,98,0.00,,OVC OVC///CB,0.40,WUHU216DAVISVP2,2013-01-12 04:39:00,
2013-01-11 23:44:00,48.9,48.5,29.98,South,190,2.0,7.0,98,0.00,,OVC OVC///CB,0.40,WUHU216DAVISVP2,2013-01-12 04:44:00,
2013-01-11 23:49:00,49.0,48.8,29.98,South,181,1.0,7.0,99,0.00,,OVC OVC///CB,0.40,WUHU216DAVISVP2,2013-01-12 04:49:00,
2013-01-11 23:54:00,49.2,49.0,29.98,SW,226,2.0,7.0,99,0.00,,OVC OVC///CB,0.40,WUHU216DAVISVP2,2013-01-12 04:54:00,
2013-01-11 23:59:00,49.3,49.1,29.97,South,191,4.0,7.0,99,0.00,,OVC OVC///CB,0.00,WUHU216DAVISVP2,2013-01-12 04:59:00,